Jenks, OK

2:50 PM CDT on September 29, 2016 (GMT -0500)
Jones Jr.

Weather History for KRVS - April, 2013

Change the Weather History Date:

Wednesday, April 17, 2013

  Actual Average (KTUL) Record (KTUL)
Temperature  
Mean Temperature 67 °F 61 °F  
Max Temperature 82 °F 72 °F 95 °F (2006)
Min Temperature 52 °F 50 °F 28 °F (1921)
Degree Days  
Heating Degree Days 0 6  
Month to date heating degree days 132  
Since 1 July heating degree days 3481  
Cooling Degree Days 2 2  
Month to date cooling degree days 23  
Year to date cooling degree days 35  
Growing Degree Days 17 (Base 50)    
Moisture  
Dew Point 60 °F    
Average Humidity 73    
Maximum Humidity 93    
Minimum Humidity 56    
Precipitation  
Precipitation 0.18 in 0.12 in 1.75 in (1953)
Month to date precipitation 1.88  
Year to date precipitation 8.68  
Sea Level Pressure  
Sea Level Pressure 29.76 in    
Wind  
Wind Speed 8 mph (SSE)    
Max Wind Speed 20 mph    
Max Gust Speed 30 mph    
Visibility 9 miles    
Events Rain , Thunderstorm    
T = Trace of Precipitation, MM = Missing Value Source: NWS Daily Summary

Daily Weather History Graph

Daily Weather History Graph

Search for Another Location

Airport or City:

Trip Planner

Search our weather history database for the weather conditions in past years. The results will help you decide how hot, cold, wet, or windy it might be!

Date:

Astronomy

Apr. 17, 2013 Rise Set
Actual Time 6:47 AM CDT 7:59 PM CDT
Civil Twilight 6:21 AM CDT 8:26 PM CDT
Nautical Twilight 5:49 AM CDT 8:57 PM CDT
Astronomical Twilight 5:16 AM CDT 9:30 PM CDT
Moon 12:06 PM CDT (4/17) 1:34 AM CDT (4/17)
Length of Visible Light 14h 04m
Length of Day
13h 11m
Waxing Crescent, 42% of the Moon is Illuminated
Apr 17
Waxing Crescent
Apr 18
First Quarter
Apr 25
Full
May 2
Last Quarter
May 9
New

Hourly Weather History & Observations

Time (CDT) Temp. Heat Index Dew Point Humidity Pressure Visibility Wind Dir Wind Speed Gust Speed Precip Events Conditions
12:53 AM 53.1 °F - 48.0 °F 83% 29.94 in 10.0 mi North 5.8 mph - N/A   Overcast
1:53 AM 53.1 °F - 48.0 °F 83% 29.93 in 10.0 mi NE 5.8 mph - N/A   Overcast
2:53 AM 53.1 °F - 48.0 °F 83% 29.93 in 10.0 mi NNE 6.9 mph - N/A   Overcast
3:53 AM 52.0 °F - 48.0 °F 86% 29.92 in 10.0 mi NNE 5.8 mph - N/A   Clear
4:31 AM 53.6 °F - 48.2 °F 82% 29.88 in 10.0 mi NNE 5.8 mph - N/A   Mostly Cloudy
4:53 AM 53.1 °F - 48.9 °F 86% 29.91 in 10.0 mi NNE 4.6 mph - N/A   Overcast
5:53 AM 53.1 °F - 48.9 °F 86% 29.86 in 10.0 mi Calm Calm - N/A   Mostly Cloudy
6:03 AM 53.6 °F - 48.2 °F 82% 29.85 in 10.0 mi Calm Calm - N/A   Scattered Clouds
6:24 AM 53.6 °F - 50.0 °F 88% 29.84 in 10.0 mi Calm Calm - N/A   Mostly Cloudy
6:53 AM 55.9 °F - 51.1 °F 84% 29.86 in 10.0 mi Calm Calm - N/A   Overcast
7:53 AM 59.0 °F - 55.9 °F 90% 29.88 in 5.0 mi Calm Calm - 0.00 in Rain Light Rain
9:53 AM 73.9 °F - 69.1 °F 85% 29.85 in 7.0 mi South 12.7 mph - 0.00 in   Overcast
10:53 AM 75.0 °F - 68.0 °F 79% 29.84 in 8.0 mi South 16.1 mph 23.0 mph N/A   Overcast
11:53 AM 77.0 °F - 66.9 °F 71% 29.82 in 9.0 mi South 19.6 mph 27.6 mph N/A   Overcast
12:32 PM 78.8 °F - 66.2 °F 65% 29.79 in 10.0 mi South 16.1 mph 28.8 mph N/A   Overcast
12:41 PM 78.8 °F - 66.2 °F 65% 29.78 in 10.0 mi South 16.1 mph 26.5 mph N/A   Overcast
12:53 PM 79.0 °F - 66.0 °F 64% 29.79 in 10.0 mi South 17.3 mph 29.9 mph N/A   Mostly Cloudy
1:53 PM 80.1 °F 81.9 °F 64.9 °F 60% 29.77 in 10.0 mi South 16.1 mph 25.3 mph N/A   Mostly Cloudy
2:53 PM 81.0 °F 83.0 °F 66.0 °F 60% 29.73 in 10.0 mi South 16.1 mph 26.5 mph N/A   Mostly Cloudy
3:53 PM 82.0 °F 83.8 °F 64.9 °F 56% 29.69 in 10.0 mi South 18.4 mph 27.6 mph N/A   Overcast
4:53 PM 81.0 °F 82.5 °F 64.0 °F 56% 29.68 in 10.0 mi South 18.4 mph 28.8 mph N/A   Mostly Cloudy
5:53 PM 81.0 °F 82.5 °F 64.0 °F 56% 29.66 in 10.0 mi South 15.0 mph 28.8 mph N/A   Overcast
6:53 PM 80.1 °F 81.7 °F 64.0 °F 58% 29.65 in 10.0 mi South 13.8 mph 20.7 mph N/A   Overcast
7:53 PM 79.0 °F - 64.0 °F 60% 29.63 in 10.0 mi South 12.7 mph 17.3 mph N/A   Clear
8:13 PM 78.8 °F - 64.4 °F 61% 29.60 in 10.0 mi South 11.5 mph 21.9 mph N/A Thunderstorm Partly Cloudy
8:28 PM 78.8 °F - 64.4 °F 61% 29.59 in 10.0 mi South 12.7 mph 21.9 mph 0.00 in Rain Light Rain
8:48 PM 77.0 °F - 64.4 °F 65% 29.61 in 10.0 mi South 13.8 mph 20.7 mph 0.00 in Rain , Thunderstorm Light Rain
8:53 PM 77.0 °F - 64.9 °F 66% 29.61 in 10.0 mi SSE 10.4 mph 21.9 mph 0.00 in Rain , Thunderstorm Light Thunderstorms and Rain
9:53 PM 75.9 °F - 64.9 °F 69% 29.60 in 10.0 mi SSE 13.8 mph 21.9 mph 0.03 in Rain , Thunderstorm Light Thunderstorms and Rain
10:53 PM 66.0 °F - 62.1 °F 87% 29.61 in 9.0 mi NW 9.2 mph 17.3 mph 0.01 in Rain , Thunderstorm Light Thunderstorms and Rain
11:53 PM 66.0 °F - 64.0 °F 93% 29.57 in 4.0 mi Variable 5.8 mph 21.9 mph 0.14 in Rain , Thunderstorm Rain